Regional Weather Roundup
Issued by NWS Kansas City/Pleasant Hill, MO

Home | Current Version | Previous Version | Graphics & Text | Print | Product List | Glossary Off
Versions: 1 2 3 4 5 6 7 8 9 10 11 12 13 14 15 16 17 18 19 20 21 22 23 24 25 26 27

000
ASUS43 KEAX 290510
RWREAX

WEATHER ROUNDUP FOR EASTERN KANSAS AND NORTHWEST MISSOURI
NATIONAL WEATHER SERVICE KANSAS CITY/PLEASANT HILL MO
1200 AM CDT MON AUG 29 2016

KSZ040-057-103>105-MOZ028-029-037-043-290600-
...KANSAS CITY METROPOLITAN AREA...

CITY           SKY/WX    TMP DP  RH WIND       PRES   REMARKS
K.C. INTL      CLOUDY    74  68  81 E7        30.13F
K.C. DOWNTOWN  CLOUDY    72  68  87 E3        30.12F
LEES SUMMIT    CLEAR     73  70  90 NE3       30.14F
OLATHE - IXD   PTCLDY    74  69  85 E6        30.15S
OLATHE - OJC   PTCLDY    74  67  78 E6        30.14F
LAWRENCE       PTCLDY    74  71  91 CALM      30.13F

$$

MOZ001>008-011>017-020>025-030>033-038>040-044>046-053-054-290600-
...NORTHERN AND CENTRAL MISSOURI...

CITY           SKY/WX    TMP DP  RH WIND       PRES   REMARKS
ST. JOSEPH     MOCLDY    72  69  90 CALM      30.12F
MOSBY          CLOUDY    72  70  94 CALM      30.13F
WHITEMAN AFB   CLEAR     73  73 100 SE5       30.13S
CLINTON        CLEAR     73  72  94 CALM      30.14S
SEDALIA        CLEAR     75  71  87 CALM      30.15S
WARSAW         NOT AVBL
CHILLICOTHE    NOT AVBL
KIRKSVILLE     CLOUDY    73  68  84 CALM      30.18S

$$

MOZ041-047>049-056>058-063>065-088>090-097-290600-
...EASTERN AND SOUTHERN MISSOURI...

CITY           SKY/WX    TMP DP  RH WIND       PRES   REMARKS
ST. LOUIS INTL PTCLDY    82  72  71 SE7       30.16R
SPIRIT OF STL  CLEAR     77  75  93 CALM      30.14R
COLUMBIA       CLEAR     75  73  93 E6        30.16S
JEFFERSON CITY CLEAR     74  73  97 SE3       30.14S
ROLLA          CLEAR     73  71  93 CALM      30.16S
OSAGE BEACH    CLEAR     74  71  91 CALM      30.16S
SPRINGFIELD    CLEAR     75  69  81 SE3       30.15S
BRANSON        PTCLDY    73  70  88 CALM      30.16S
JOPLIN         CLEAR     75  70  84 E6        30.13S
WEST PLAINS    PTCLDY    73  70  90 N3        30.18S

$$

IAZ060-094-KSZ022-034>040-054-083-096-NEZ052-066-093-290600-
...KANSAS...SOUTHEAST NEBRASKA AND IOWA...

CITY           SKY/WX    TMP DP  RH WIND       PRES   REMARKS
TOPEKA         MOCLDY    75  69  81 E3        30.13F
MANHATTAN      MOCLDY    73  69  87 NE5       30.13S
EMPORIA        MOCLDY    73  71  93 E5        30.13R
CHANUTE        CLEAR     75  70  84 E3        30.12S
WICHITA        CLOUDY    77  70  79 SE8       30.11R
OMAHA          CLOUDY    73  66  78 SE3       30.14R
LINCOLN        MOCLDY    72  66  81 S3        30.14R
FALLS CITY     CLOUDY    70  68  93 N5        30.13S
LAMONI         PTCLDY    70  70 100 CALM      30.17R
DES MOINES     CLOUDY    72  67  84 E8        30.17R

$$





USA.gov is the U.S. government's official web portal to all federal, state and local government web resources and services.